Content
SEND FEEDBACK

Daily
Averages
Monthly
Summary
United States of America

MERIZO, GUAM


Home > North America > United States > Guam
Elevation: 10 feet     Latitude: 13 14N     Longitude: 144 39E

WEATHER
 
SELECT A DAY
Number of Records: 341,964;   Date Range: 1/1/95 - 7/26/14
 
SHARE

PRINT THIS DATA

[ ← Previous Day ]
WEATHER ALMANAC - JUNE 29, 2013
[ Next Day → ]
[ °C ]   °F
We're sorry. There is no daily almanac available for Merizo, Guam on June 29, 2013.
WEATHER BY HOUR - JUNE 29, 2013
[ °C ]   °F
Local TimeTemperatureDewpointHumidityBarometerVisibilityWind DirectionWind SpeedGust SpeedPrecipitationEventsConditions
12:35 AM80.6 °F77.0 °F89 %29.85 in10.0 miEast (100°)10.4 mphOvercast
12:36 AM80.6 °F77.0 °F89 %29.85 in10.0 miEast (100°)10.4 mphOvercast
12:47 AM80.6 °F77.0 °F89 %29.84 in10.0 miEast (100°)11.5 mphMostly Cloudy
12:49 AM80.6 °F77.0 °F89 %29.84 in10.0 miEast (90°)12.7 mphMostly Cloudy
12:55 AM80.4 °F77.2 °F90 %29.84 in10.0 miEast (100°)11.5 mphScattered Clouds
1:33 AM80.6 °F77.0 °F89 %29.84 in10.0 miEast (90°)10.4 mphMostly Cloudy
1:38 AM80.6 °F77.0 °F89 %29.83 in10.0 miEast (90°)10.4 mphMostly Cloudy
1:44 AM80.6 °F75.2 °F84 %29.83 in10.0 miEast (90°)10.4 mphMostly Cloudy
1:50 AM80.6 °F75.2 °F84 %29.83 in10.0 miEast (100°)10.4 mphMostly Cloudy
1:55 AM80.4 °F75.6 °F85 %29.83 in10.0 miEast (90°)12.7 mphMostly Cloudy
2:03 AM80.6 °F77.0 °F89 %29.83 in10.0 miEast (90°)9.2 mphMostly Cloudy
2:09 AM80.6 °F75.2 °F84 %29.83 in10.0 miEast (90°)10.4 mphMostly Cloudy
2:10 AM80.6 °F75.2 °F84 %29.83 in10.0 miEast (90°)10.4 mphMostly Cloudy
2:15 AM80.6 °F75.2 °F84 %29.83 in10.0 miEast (80°)10.4 mphMostly Cloudy
2:37 AM80.6 °F75.2 °F84 %29.83 in10.0 miEast (100°)10.4 mphScattered Clouds
2:55 AM80.2 °F75.9 °F87 %29.83 in10.0 miEast (100°)11.5 mphPartly Cloudy
3:54 AM80.6 °F77.0 °F89 %29.83 in10.0 miEast (100°)9.2 mphMostly Cloudy
3:55 AM80.4 °F76.3 °F87 %29.83 in10.0 miEast (100°)9.2 mphMostly Cloudy
4:02 AM80.6 °F77.0 °F89 %29.83 in10.0 miEast (100°)10.4 mphScattered Clouds
4:03 AM80.6 °F77.0 °F89 %29.83 in10.0 miEast (100°)10.4 mphMostly Cloudy
4:14 AM80.6 °F77.0 °F89 %29.84 in10.0 miEast (100°)15.0 mphMostly Cloudy
4:18 AM80.6 °F77.0 °F89 %29.83 in9.0 miEast (90°)12.7 mphLight Drizzle
4:23 AM78.8 °F75.2 °F89 %29.83 in9.0 miEast (100°)9.2 mphLight Drizzle
4:26 AM78.8 °F75.2 °F89 %29.83 in9.0 miEast (100°)8.1 mphLight Drizzle
4:29 AM78.8 °F75.2 °F89 %29.83 in10.0 miEast (100°)6.9 mphScattered Clouds
4:54 AM78.8 °F77.0 °F94 %29.84 in10.0 miEast (100°)9.2 mphMostly Cloudy
4:55 AM79.3 °F76.1 °F90 %29.83 in10.0 miEast (100°)9.2 mph0.00 inMostly Cloudy
4:56 AM78.8 °F75.2 °F89 %29.83 in10.0 miESE (110°)10.4 mphMostly Cloudy
5:02 AM78.8 °F75.2 °F89 %29.84 in10.0 miESE (110°)9.2 mphMostly Cloudy
5:03 AM78.8 °F75.2 °F89 %29.84 in10.0 miESE (110°)9.2 mphMostly Cloudy
5:05 AM78.8 °F75.2 °F89 %29.84 in10.0 miESE (110°)9.2 mphMostly Cloudy
5:08 AM78.8 °F75.2 °F89 %29.84 in10.0 miEast (100°)8.1 mphMostly Cloudy
5:26 AM80.6 °F75.2 °F84 %29.84 in10.0 miEast (90°)12.7 mphMostly Cloudy
5:27 AM80.6 °F75.2 °F84 %29.84 in10.0 miEast (100°)11.5 mphMostly Cloudy
5:29 AM80.6 °F75.2 °F84 %29.84 in10.0 miEast (100°)11.5 mphMostly Cloudy
5:34 AM80.6 °F75.2 °F84 %29.84 in10.0 miEast (100°)11.5 mphScattered Clouds
5:55 AM79.7 °F75.2 °F86 %29.85 in10.0 miEast (90°)9.2 mphScattered Clouds
6:01 AM80.6 °F75.2 °F84 %29.85 in10.0 miEast (90°)10.4 mphRainLight Rain
6:09 AM80.6 °F75.2 °F84 %29.85 in10.0 miEast (90°)8.1 mphScattered Clouds
6:25 AM80.6 °F77.0 °F89 %29.85 in9.0 miESE (120°)13.8 mphRainLight Rain
6:26 AM80.6 °F77.0 °F89 %29.85 in8.0 miESE (120°)13.8 mphRainLight Rain
6:40 AM78.8 °F75.2 °F89 %29.86 in10.0 miEast (90°)8.1 mphLight Drizzle
6:48 AM78.8 °F77.0 °F94 %29.86 in10.0 miEast (100°)8.1 mphMostly Cloudy
6:55 AM79.7 °F76.6 °F90 %29.86 in10.0 miEast (100°)8.1 mph0.00 inMostly Cloudy
7:15 AM80.6 °F77.0 °F89 %29.86 in10.0 miEast (100°)11.5 mphMostly Cloudy
7:20 AM80.6 °F77.0 °F89 %29.86 in10.0 miEast (100°)8.1 mphMostly Cloudy
7:22 AM80.6 °F77.0 °F89 %29.86 in10.0 miESE (110°)8.1 mphMostly Cloudy
7:25 AM80.6 °F77.0 °F89 %29.87 in10.0 miEast (100°)8.1 mphMostly Cloudy
7:28 AM80.6 °F77.0 °F89 %29.87 in10.0 miEast (100°)8.1 mphMostly Cloudy
7:29 AM82.4 °F77.0 °F84 %29.87 in10.0 miEast (100°)9.2 mphScattered Clouds
7:46 AM80.6 °F77.0 °F89 %29.87 in10.0 miEast (90°)11.5 mphMostly Cloudy
7:50 AM80.6 °F77.0 °F89 %29.87 in10.0 miEast (100°)8.1 mphMostly Cloudy
7:52 AM80.6 °F77.0 °F89 %29.87 in10.0 miEast (100°)9.2 mphMostly Cloudy
7:55 AM81.3 °F76.8 °F86 %29.87 in10.0 miEast (90°)10.4 mphMostly Cloudy
7:59 AM80.6 °F77.0 °F89 %29.87 in4.0 miEast (80°)18.4 mphRainLight Rain
8:00 AM80.6 °F75.2 °F84 %29.87 in2.5 miEast (90°)15.0 mphRainHeavy Rain
8:01 AM80.6 °F75.2 °F84 %29.87 in2.0 miEast (100°)13.8 mph18.4 mphRainHeavy Rain
8:02 AM80.6 °F75.2 °F84 %29.87 in1.8 miESE (110°)13.8 mph18.4 mphRainLight Rain
8:09 AM80.6 °F77.0 °F89 %29.87 in2.0 miEast (100°)9.2 mphRainLight Rain
8:10 AM80.6 °F77.0 °F89 %29.87 in3.0 miEast (100°)10.4 mphRainLight Rain
8:11 AM80.6 °F77.0 °F89 %29.87 in5.0 miESE (110°)9.2 mphRainLight Rain
8:12 AM80.6 °F77.0 °F89 %29.87 in6.0 miESE (110°)10.4 mphRainLight Rain
8:13 AM80.6 °F77.0 °F89 %29.87 in8.0 miESE (110°)9.2 mphScattered Clouds
8:40 AM82.4 °F78.8 °F89 %29.87 in10.0 miEast (100°)8.1 mphMostly Cloudy
8:43 AM82.4 °F78.8 °F89 %29.87 in10.0 miEast (100°)8.1 mphMostly Cloudy
8:55 AM82.8 °F78.6 °F87 %29.87 in10.0 miEast (90°)11.5 mph0.07 inMostly Cloudy
8:58 AM82.4 °F78.8 °F89 %29.87 in10.0 miEast (100°)10.4 mphMostly Cloudy
9:02 AM82.4 °F78.8 °F89 %29.87 in10.0 miEast (80°)10.4 mphScattered Clouds
9:03 AM82.4 °F78.8 °F89 %29.87 in10.0 miEast (90°)9.2 mphMostly Cloudy
9:08 AM82.4 °F78.8 °F89 %29.87 in10.0 miEast (100°)9.2 mphMostly Cloudy
9:55 AM83.7 °F77.9 °F83 %29.87 in10.0 miEast (100°)12.7 mphMostly Cloudy
9:56 AM84.2 °F77.0 °F79 %29.87 in10.0 miEast (90°)12.7 mphMostly Cloudy
9:59 AM84.2 °F77.0 °F79 %29.87 in10.0 miESE (110°)12.7 mphMostly Cloudy
10:05 AM84.2 °F77.0 °F79 %29.87 in10.0 miESE (110°)11.5 mphMostly Cloudy
10:07 AM84.2 °F77.0 °F79 %29.87 in10.0 miEast (90°)13.8 mphMostly Cloudy
10:13 AM84.2 °F78.8 °F84 %29.87 in10.0 miESE (110°)11.5 mphMostly Cloudy
10:19 AM84.2 °F78.8 °F84 %29.87 in10.0 miESE (110°)11.5 mphMostly Cloudy
10:43 AM86.0 °F77.0 °F74 %29.86 in10.0 miESE (120°)11.5 mphMostly Cloudy
10:55 AM85.5 °F77.9 °F78 %29.86 in10.0 miEast (100°)11.5 mphMostly Cloudy
11:10 AM86.0 °F77.0 °F74 %29.86 in10.0 miEast (80°)13.8 mphScattered Clouds
11:55 AM85.8 °F77.9 °F77 %29.86 in10.0 miEast (100°)11.5 mphScattered Clouds
12:00 PM86.0 °F78.8 °F79 %29.85 in10.0 miEast (80°)11.5 mphMostly Cloudy
12:05 PM86.0 °F78.8 °F79 %29.86 in10.0 miEast (80°)15.0 mphScattered Clouds
12:08 PM86.0 °F77.0 °F74 %29.86 in10.0 miEast (90°)12.7 mphMostly Cloudy
12:09 PM86.0 °F77.0 °F74 %29.86 in10.0 miEast (90°)12.7 mphRainLight Rain
12:10 PM86.0 °F77.0 °F74 %29.86 in10.0 miEast (90°)12.7 mphRainLight Rain
12:11 PM86.0 °F77.0 °F74 %29.86 in10.0 miEast (90°)11.5 mphRainLight Rain
12:18 PM86.0 °F77.0 °F74 %29.86 in10.0 miEast (100°)12.7 mphScattered Clouds
12:55 PM84.9 °F77.7 °F79 %29.85 in10.0 miEast (100°)12.7 mph0.00 inScattered Clouds
12:59 PM84.2 °F77.0 °F79 %29.85 in10.0 miESE (110°)10.4 mphMostly Cloudy
1:01 PM84.2 °F77.0 °F79 %29.85 in10.0 miESE (120°)11.5 mphScattered Clouds
1:02 PM84.2 °F77.0 °F79 %29.85 in10.0 miESE (120°)11.5 mphMostly Cloudy
1:06 PM84.2 °F77.0 °F79 %29.85 in10.0 miESE (110°)12.7 mphScattered Clouds
1:38 PM84.2 °F77.0 °F79 %29.85 in10.0 miESE (110°)11.5 mphMostly Cloudy
1:55 PM83.5 °F76.8 °F80 %29.84 in10.0 miEast (100°)9.2 mphScattered Clouds
2:55 PM85.1 °F77.9 °F79 %29.83 in10.0 miESE (110°)9.2 mphClear
3:55 PM84.9 °F77.5 °F78 %29.81 in10.0 miEast (90°)10.4 mphPartly Cloudy
4:02 PM86.0 °F78.8 °F79 %29.81 in10.0 miEast (80°)11.5 mphMostly Cloudy
4:06 PM86.0 °F77.0 °F74 %29.81 in10.0 miEast (90°)12.7 mphScattered Clouds
4:35 PM84.2 °F78.8 °F84 %29.82 in4.0 miEast (100°)8.1 mph18.4 mphRainRain
4:44 PM82.4 °F77.0 °F84 %29.82 in5.0 miEast (90°)9.2 mphRainLight Rain
4:48 PM82.4 °F77.0 °F84 %29.82 in10.0 miEast (90°)11.5 mphMostly Cloudy
4:51 PM82.4 °F77.0 °F84 %29.82 in10.0 miEast (90°)10.4 mphScattered Clouds
4:55 PM82.0 °F77.7 °F87 %29.82 in10.0 miEast (90°)10.4 mph0.03 inScattered Clouds
4:57 PM82.4 °F78.8 °F89 %29.83 in10.0 miEast (80°)10.4 mphMostly Cloudy
5:06 PM82.4 °F77.0 °F84 %29.83 in10.0 miEast (80°)13.8 mphRainLight Rain
5:07 PM82.4 °F77.0 °F84 %29.83 in8.0 miEast (80°)16.1 mphRainLight Rain
5:10 PM82.4 °F77.0 °F84 %29.83 in6.0 miENE (70°)12.7 mphRainLight Rain
5:14 PM80.6 °F77.0 °F89 %29.83 in4.0 miENE (60°)12.7 mphRainLight Rain
5:25 PM80.6 °F77.0 °F89 %29.83 in10.0 miEast (80°)12.7 mphMostly Cloudy
5:55 PM81.3 °F77.0 °F87 %29.84 in10.0 miEast (80°)11.5 mph0.01 inClear
6:55 PM80.8 °F76.6 °F87 %29.85 in10.0 miEast (80°)9.2 mphPartly Cloudy
7:35 PM80.6 °F77.0 °F89 %29.86 in10.0 miEast (80°)10.4 mphMostly Cloudy
7:37 PM80.6 °F77.0 °F89 %29.86 in10.0 miEast (90°)11.5 mphScattered Clouds
7:38 PM80.6 °F77.0 °F89 %29.86 in10.0 miEast (90°)10.4 mphMostly Cloudy
7:47 PM80.6 °F77.0 °F89 %29.86 in10.0 miEast (80°)11.5 mphScattered Clouds
7:55 PM80.6 °F76.5 °F87 %29.87 in10.0 miEast (80°)11.5 mphScattered Clouds
8:52 PM80.6 °F77.0 °F89 %29.88 in10.0 miEast (90°)5.8 mphMostly Cloudy
8:55 PM80.6 °F76.6 °F88 %29.88 in10.0 miEast (90°)5.8 mphMostly Cloudy
9:25 PM80.6 °F75.2 °F84 %29.88 in10.0 miEast (90°)10.4 mphScattered Clouds
9:55 PM80.2 °F75.9 °F87 %29.88 in10.0 miEast (90°)9.2 mphScattered Clouds
10:36 PM80.6 °F77.0 °F89 %29.89 in10.0 miESE (110°)8.1 mphMostly Cloudy
10:44 PM80.6 °F77.0 °F89 %29.89 in10.0 miESE (110°)5.8 mphScattered Clouds
10:50 PM80.6 °F77.0 °F89 %29.89 in10.0 miEast (100°)5.8 mphMostly Cloudy
10:55 PM80.2 °F76.5 °F88 %29.89 in10.0 miEast (100°)5.8 mphMostly Cloudy
11:01 PM80.6 °F77.0 °F89 %29.89 in10.0 miEast (90°)8.1 mphMostly Cloudy
11:11 PM80.6 °F77.0 °F89 %29.89 in10.0 miEast (100°)4.6 mphMostly Cloudy
11:19 PM80.6 °F77.0 °F89 %29.89 in10.0 miEast (90°)6.9 mphMostly Cloudy
11:55 PM79.9 °F76.3 °F89 %29.88 in10.0 miEast (90°)6.9 mphScattered Clouds
Hourly data recorded from PGUA, located miles away from Merizo, Guam







STORIES FROM OUR PARTNERS